Location: Ammerl�gen
(47.2167°N, 9.6000°E)
Time: 06:42:23
(UTC+00:00)

RS-15 - Visible Passes

Search period start: 30 November 2022 00:00
Search period end: 10 December 2022 00:00
Orbit: 1882 x 2163 km, 64.8° (Epoch: 29 November)

Date Brightness Start Highest point End Pass type
(mag) Time Alt. Az. Time Alt. Az. Time Alt. Az.
30 Nov 8.8 16:59:11 10° NW 17:10:14 35° N 17:17:37 20° ENE visible
30 Nov 8.1 19:13:36 10° NW 19:25:23 61° NNE 19:25:23 61° NNE visible
30 Nov 9.1 21:26:42 10° NW 21:33:09 35° WNW 21:33:09 35° WNW visible
01 Dec 8.9 16:22:22 10° WNW 16:33:19 34° N 16:43:00 13° ENE visible
01 Dec 8.2 18:37:21 10° NW 18:49:22 53° NE 18:50:47 51° ENE visible
01 Dec 8.7 20:50:27 10° NW 20:58:33 47° WNW 20:58:33 47° WNW visible
01 Dec 10.0 23:05:52 10° WNW 23:06:19 11° WNW 23:06:19 11° WNW visible
02 Dec 8.9 15:45:26 10° WNW 15:56:22 34° N 16:07:09 10° ENE visible
02 Dec 8.4 18:01:02 10° NW 18:12:47 46° NNE 18:16:13 39° ENE visible
02 Dec 8.3 20:14:16 10° NW 20:23:59 62° NW 20:23:59 62° NW visible
02 Dec 9.8 22:28:31 10° NW 22:31:45 17° WNW 22:31:45 17° WNW visible
03 Dec 8.6 17:24:36 10° NW 17:36:06 41° NNE 17:41:42 28° ENE visible
03 Dec 8.0 19:38:06 10° NW 19:49:29 79° NNW 19:49:29 79° NNW visible
03 Dec 9.4 21:51:42 10° NW 21:57:15 25° WNW 21:57:15 25° WNW visible
04 Dec 8.7 16:48:04 10° NW 16:59:19 38° NNE 17:07:15 19° ENE visible
04 Dec 7.9 19:01:56 10° NW 19:14:16 74° NE 19:15:02 72° ENE visible
04 Dec 9.1 21:15:12 10° NW 21:22:48 35° WNW 21:22:48 35° WNW visible
05 Dec 8.8 16:11:24 10° NW 16:22:28 35° N 16:32:51 11° ENE visible
05 Dec 8.0 18:25:44 10° NW 18:37:58 63° NE 18:40:38 53° E visible
05 Dec 8.6 20:38:50 10° NW 20:48:25 47° W 20:48:25 47° W visible
06 Dec 8.2 17:49:30 10° NW 18:01:31 54° NE 18:06:20 37° E visible
06 Dec 8.2 20:02:35 10° NW 20:14:08 63° WSW 20:14:08 63° WSW visible
06 Dec 9.8 22:18:16 10° WNW 22:21:55 14° W 22:21:55 14° W visible
07 Dec 8.4 17:13:11 10° NW 17:24:58 47° NNE 17:32:07 25° E visible
07 Dec 8.0 19:26:24 10° NW 19:38:34 77° WSW 19:39:56 71° S visible
07 Dec 9.5 21:40:46 10° NW 21:47:44 21° W 21:47:44 21° W visible
08 Dec 8.5 16:36:47 10° NW 16:48:19 42° NNE 16:58:02 14° E visible
08 Dec 7.9 18:50:13 10° NW 19:02:32 89° NE 19:05:51 56° SE visible
08 Dec 9.2 21:03:54 10° NW 21:13:27 29° WSW 21:13:40 29° WSW visible
09 Dec 8.7 16:00:15 10° NW 16:11:33 38° NNE 16:22:26 10° E visible
09 Dec 8.0 18:14:03 10° NW 18:26:24 76° NE 18:31:56 39° SE visible
09 Dec 8.9 20:27:21 10° NW 20:37:56 38° WSW 20:39:46 36° SW visible
